Theta_e
341 341 340 340 339 340 340 340 340 340 340 341 339 340 339 342 343 343 343 344 344 344 345 347 347 348 347 347 347 345 344 343 341 341 341 341 340 341 341 342 344 343
341 340 340 341 341 341 341 341 340 340 339 339 340 339 341 341 342 343 342 343 343 343 344 344 345 344 343 343 345 344 343 341 340 341 340 340 340 339 339 341 342 343
340 340 340 340 339 341 341 341 341 340 338 339 341 341 341 342 342 342 342 343 342 342 343 345 347 347 344 342 342 343 343 343 342 342 340 339 339 338 339 339 340 341
340 340 339 340 340 340 341 340 340 340 340 340 339 340 340 341 342 341 341 342 341 341 342 342 342 342 342 341 341 341 341 340 340 343 341 340 339 338 338 339 338 338
339 339 339 339 340 341 341 340 340 339 339 340 340 340 338 340 341 340 340 340 340 339 340 340 340 340 340 339 339 341 341 339 339 340 338 337 338 338 338 339 337 335
339 338 338 338 340 340 340 340 340 339 339 339 339 339 339 339 338 338 339 339 338 338 338 338 338 338 339 339 339 338 339 338 338 338 337 336 337 338 336 339 339 334
338 338 338 339 339 340 340 340 339 340 339 339 338 338 338 338 337 336 337 337 337 337 336 337 336 337 337 337 337 337 339 339 339 336 335 335 336 337 338 338 336 336
338 338 337 338 339 339 339 338 339 338 339 337 337 336 336 336 335 336 336 335 335 334 335 334 335 335 335 336 335 334 334 334 334 334 335 333 336 335 336 336 335 334
338 337 337 337 337 337 337 337 337 338 337 337 336 335 336 336 335 335 334 334 333 333 332 332 333 333 334 334 333 331 330 332 332 332 331 331 331 331 332 334 334 335
337 337 337 337 336 336 336 337 337 337 336 336 335 335 335 335 335 334 333 333 331 331 331 331 331 332 332 332 330 330 329 328 328 329 329 328 328 327 327 330 332 333
338 337 337 337 337 337 337 337 337 336 336 334 333 333 333 334 334 333 332 330 331 329 329 329 330 330 330 329 330 329 328 327 325 324 324 323 324 324 323 324 325 327
337 338 339 339 338 338 337 336 336 335 335 333 332 333 333 332 332 331 330 329 329 328 328 328 329 328 326 326 326 327 326 325 323 322 322 321 322 322 322 323 324 324
337 336 338 339 338 337 337 335 335 335 333 331 332 332 331 330 330 329 330 329 327 328 327 328 327 327 327 326 325 324 323 323 324 323 322 323 322 321 322 323 323 323
336 337 338 337 336 336 336 335 335 335 334 332 331 330 329 328 328 328 329 328 327 327 327 328 328 327 326 325 324 323 323 323 323 323 322 323 324 324 324 324 323 323
336 336 337 336 335 335 336 336 335 336 335 334 332 332 331 330 330 329 327 326 326 327 326 327 328 327 327 325 324 323 323 323 322 321 321 320 320 321 322 322 323 323
334 335 334 334 333 332 333 335 335 335 333 331 332 331 332 331 330 329 328 326 325 325 326 327 327 327 326 319 318 323 323 322 322 322 321 321 320 320 320 321 321 323
332 333 333 333 332 332 332 332 333 334 331 329 328 327 328 329 330 329 328 326 325 324 324 326 326 326 312 303 303 308 321 322 321 320 321 321 320 320 319 319 320 320
330 331 332 332 332 331 331 331 333 331 327 326 328 329 330 329 329 328 327 326 325 324 324 324 325 319 300 299 298 300 311 322 322 321 321 321 320 319 319 319 318 319
329 329 330 331 331 331 331 332 331 330 328 327 327 328 328 327 328 328 327 326 325 323 323 323 325 305 300 299 298 298 299 313 321 322 321 320 320 320 319 318 318 317
331 329 329 330 331 331 330 329 330 329 330 328 328 326 325 326 327 328 328 325 323 322 322 323 324 307 299 298 298 296 297 302 322 321 322 321 320 319 319 318 318 318
331 331 330 330 331 331 330 329 328 329 329 328 327 325 326 325 326 327 327 325 324 322 322 321 323 302 298 297 297 296 295 298 321 322 322 321 321 320 319 318 318 318
331 331 331 331 330 330 330 329 329 329 328 327 325 325 327 328 328 328 325 325 325 322 321 320 329 296 297 296 296 295 294 314 320 321 320 320 320 320 319 319 319 319
331 330 330 330 330 329 329 329 329 328 328 329 327 326 327 326 330 327 325 326 327 323 322 320 326 304 296 295 296 294 299 318 320 319 319 319 318 318 317 317 317 318
331 330 330 330 330 329 329 330 330 329 328 328 328 327 327 329 325 325 325 325 324 322 321 320 322 311 294 296 295 293 307 319 319 318 318 317 317 318 317 316 316 316
331 330 330 330 329 329 330 329 329 329 330 330 330 330 329 330 328 325 322 323 324 323 323 323 321 315 294 295 295 294 304 319 318 317 316 315 314 314 315 314 315 316
332 331 330 330 329 330 331 330 330 330 330 329 329 328 328 327 324 323 321 323 324 321 324 327 324 322 304 293 295 294 297 316 318 316 315 315 314 312 312 314 314 315
Wind_Speed
10 9 9 9 8 7 7 7 6 7 6 6 6 6 6 6 6 7 7 7 7 7 7 7 7 7 6 6 6 6 5 6 7 6 6 6 7 8 7 8 8 7
11 10 9 9 8 7 7 7 7 6 6 6 6 6 5 5 6 6 7 7 7 8 7 7 7 7 7 6 6 6 6 6 7 6 6 7 7 7 8 9 9 8
11 11 10 10 9 9 9 8 7 7 6 6 6 6 5 5 6 6 6 7 7 7 7 7 6 6 7 7 6 6 7 7 7 6 6 6 6 7 7 7 8 10
12 12 11 11 10 10 9 9 8 8 7 7 7 6 5 5 6 6 7 7 7 7 7 7 7 7 7 7 6 6 6 6 6 6 7 6 6 7 7 7 7 7
13 12 11 11 11 10 10 9 10 9 9 8 8 7 7 7 7 7 7 7 7 7 6 6 6 6 6 6 6 5 5 5 6 6 6 7 7 7 6 6 7 9
12 12 12 11 11 11 10 10 10 10 10 9 8 7 7 8 7 8 8 8 7 7 7 6 6 6 6 6 6 5 4 5 6 7 7 7 7 6 6 7 7 8
13 13 13 11 11 11 11 10 9 9 9 8 7 7 7 7 8 8 7 7 7 7 7 6 6 6 5 5 6 6 6 6 6 7 7 6 6 7 8 7 8 9
13 13 13 12 12 11 11 10 10 10 9 8 8 9 9 8 9 7 7 7 6 7 6 6 6 6 5 5 6 6 6 5 6 6 7 7 6 8 8 7 7 9
12 12 12 13 13 12 12 12 12 12 11 11 10 9 10 9 9 9 9 8 7 6 6 6 6 6 5 5 6 6 6 5 4 4 4 5 6 6 6 6 8 8
13 13 14 14 14 13 14 13 12 11 10 10 10 9 10 9 9 9 8 8 8 7 7 7 6 6 6 5 6 5 5 6 5 5 4 3 4 6 7 6 6 8
15 14 15 15 15 13 14 14 13 11 10 10 10 10 9 9 8 8 8 8 7 8 8 7 6 6 6 6 4 3 4 2 2 2 2 3 3 4 5 6 7 7
16 15 16 17 16 14 14 13 12 11 11 10 10 10 9 8 8 8 7 8 8 8 7 7 7 6 6 6 6 5 4 3 2 2 3 3 4 4 5 5 6 8
16 17 14 15 15 13 12 12 12 11 11 11 10 11 10 9 9 9 8 8 8 7 7 7 7 6 6 6 6 6 5 4 3 3 3 3 4 5 5 6 6 7
15 16 14 14 13 12 12 12 12 12 11 11 10 11 10 11 10 10 8 8 7 7 7 6 6 6 7 7 7 6 4 4 4 3 3 4 4 5 6 6 7 7
13 13 13 14 13 12 13 13 13 12 11 10 10 10 9 10 10 10 9 9 8 8 7 7 7 7 7 7 7 5 4 4 3 4 4 5 5 6 6 7 7 7
13 12 13 14 14 14 14 13 13 12 10 10 10 10 9 9 10 10 10 9 9 9 8 7 7 6 6 4 1 3 5 4 4 4 5 5 5 6 7 7 8 8
11 11 12 14 13 12 13 14 14 12 12 12 10 10 10 10 10 10 10 9 9 9 9 7 7 6 11 10 7 2 4 4 4 5 5 5 6 6 7 7 7 9
11 12 12 13 13 13 14 14 13 12 12 11 8 6 6 9 10 11 11 10 8 9 9 8 8 10 13 11 10 9 6 5 5 5 5 6 6 6 6 6 7 8
12 12 13 13 13 14 13 13 14 14 13 13 13 12 10 11 11 11 11 10 9 9 9 9 7 12 13 13 12 11 10 7 6 6 6 6 6 6 7 7 7 7
12 12 13 13 13 13 13 14 15 14 13 13 12 13 12 11 11 10 9 10 10 10 9 8 8 12 14 14 12 12 10 8 7 7 7 7 8 7 7 7 7 8
12 12 12 12 12 13 13 14 14 14 14 12 12 11 11 11 12 11 8 10 10 9 9 8 6 14 14 14 13 11 11 8 7 8 8 8 8 8 8 8 8 8
12 12 12 12 12 12 13 13 13 14 14 12 12 10 11 10 11 9 11 13 11 10 9 10 6 14 14 14 13 12 10 7 8 9 9 9 9 9 9 8 8 8
13 12 12 12 12 13 13 13 13 14 13 12 12 12 10 12 11 10 11 10 10 10 10 10 7 11 14 13 13 12 9 8 8 8 9 10 10 11 11 11 10 10
12 12 12 12 12 13 13 12 12 11 12 12 12 11 12 11 11 10 6 7 10 13 12 9 8 11 15 14 13 14 12 9 8 8 9 11 11 11 10 11 12 9
11 11 11 12 12 13 12 12 12 12 11 11 11 11 11 10 10 10 11 9 8 10 11 12 9 10 14 15 14 15 11 8 8 9 11 11 10 10 11 11 11 9
9 11 11 11 12 11 11 11 10 10 11 11 10 10 10 11 10 9 10 10 8 10 9 10 10 7 11 15 15 15 15 9 8 9 11 11 10 10 11 11 11 10
Wind_Direction
203 198 197 198 201 203 199 198 197 200 203 205 211 205 210 204 207 210 215 219 221 223 220 215 210 204 198 200 198 207 213 222 223 225 232 235 241 239 238 234 235 241
204 200 199 197 196 198 199 200 196 202 203 210 213 213 208 205 201 211 213 218 218 224 225 225 222 222 219 215 199 198 205 206 217 213 223 230 237 238 240 240 237 235
202 201 199 199 197 192 195 193 193 198 202 204 208 209 205 206 210 210 215 215 219 220 222 219 218 219 224 224 215 210 210 205 215 213 216 226 235 241 241 240 241 238
203 202 199 199 198 193 190 190 193 196 199 199 200 203 207 202 208 209 212 214 223 224 223 225 227 227 231 232 229 230 230 230 226 220 217 216 227 237 243 242 242 238
201 201 201 200 197 195 192 194 195 195 195 196 195 199 205 202 205 205 205 205 213 219 221 226 229 229 228 231 232 230 223 235 234 236 237 230 225 230 235 238 245 245
201 202 200 200 197 196 196 197 196 196 193 193 195 199 204 207 208 208 206 205 205 207 209 216 219 223 224 230 228 225 215 227 232 238 243 242 234 229 236 245 250 254
201 202 203 203 199 199 199 200 196 197 197 197 196 204 204 207 213 213 213 213 209 208 208 201 211 216 219 228 228 227 222 222 226 234 239 242 242 236 235 227 234 239
205 203 203 203 201 199 201 201 197 195 195 197 201 203 206 205 208 202 207 208 210 210 208 207 209 212 216 224 232 231 227 226 235 238 246 249 245 251 246 246 248 250
205 203 202 204 203 201 200 199 197 195 193 196 197 197 199 200 197 190 190 195 197 202 204 205 208 211 208 221 230 236 233 222 231 241 258 260 260 259 260 263 261 255
201 201 203 203 204 203 202 199 197 197 193 195 198 197 196 197 193 191 188 192 193 194 195 194 203 203 208 222 225 232 236 236 237 247 260 281 293 282 284 277 264 261
199 201 202 202 201 201 201 199 198 196 193 197 198 201 197 191 191 191 187 191 185 192 186 186 191 192 195 198 199 223 231 211 224 242 264 277 286 288 288 285 288 283
199 198 199 199 201 202 198 199 198 196 192 196 197 197 191 190 190 188 193 188 185 187 183 178 185 189 204 207 201 201 195 195 227 250 271 284 283 282 281 283 281 282
202 204 200 202 203 205 201 199 199 197 197 198 196 194 187 190 193 191 194 197 186 181 183 182 181 182 199 203 203 203 199 199 204 231 251 269 280 279 280 278 277 276
209 211 206 205 205 206 202 198 194 195 199 199 196 196 190 194 193 193 188 199 187 188 187 183 175 185 192 200 205 198 202 200 206 226 242 251 261 269 273 275 274 274
210 212 214 210 206 207 202 197 198 195 195 195 193 197 197 200 195 195 190 195 191 193 190 181 191 190 193 200 197 195 205 207 229 248 268 274 275 277 278 276 274 272
207 211 214 211 209 213 205 200 197 193 188 207 198 198 197 203 201 200 195 197 197 191 193 188 194 196 151 140 320 231 202 219 230 241 251 266 276 282 281 279 279 276
208 207 212 213 209 215 211 205 200 190 181 187 191 201 198 202 204 201 201 202 202 197 190 196 195 183 143 167 171 232 250 240 247 253 253 263 270 277 282 284 280 277
207 208 211 211 208 212 213 204 193 182 178 183 181 167 209 216 208 209 204 202 206 203 198 199 204 146 160 169 183 190 223 246 243 250 254 258 267 272 279 285 284 280
206 209 213 213 214 214 212 203 193 189 188 187 190 195 193 214 213 211 210 205 200 208 208 203 214 149 169 175 183 191 202 233 245 252 256 260 264 266 274 279 283 282
209 210 214 213 213 212 208 204 199 195 194 194 194 189 195 201 212 214 220 213 207 210 211 207 217 157 173 178 183 190 195 212 247 254 257 261 262 263 263 269 272 275
206 207 211 211 206 205 202 201 201 200 197 197 193 191 194 198 205 202 209 231 211 210 211 207 202 155 175 179 184 188 190 205 239 247 252 254 255 256 256 260 269 266
203 202 201 202 201 199 200 201 201 203 200 203 199 195 200 206 205 194 198 221 216 208 214 217 169 164 172 180 180 188 177 204 232 243 249 255 258 257 258 261 263 262
201 200 198 199 197 200 201 201 201 202 203 199 202 199 193 206 203 193 206 216 223 219 216 222 205 171 171 176 179 174 177 217 230 242 250 259 269 273 274 273 272 270
200 199 196 196 196 200 201 202 202 202 203 201 207 202 203 201 205 193 192 215 218 226 220 219 224 164 170 170 172 174 191 212 232 241 257 268 271 271 274 276 277 256
201 202 200 197 200 202 202 201 201 201 198 199 204 208 206 194 182 189 199 216 221 235 230 222 226 159 166 165 173 179 192 221 234 250 264 272 268 266 268 274 270 250
203 204 203 201 203 201 200 202 198 195 196 196 199 205 197 193 189 187 205 213 204 224 223 217 225 177 163 169 175 182 194 215 234 247 263 268 273 269 273 277 271 271